Content
SEND FEEDBACK

Daily
Averages
Monthly
Summary
United States of America

BURLINGTON, NORTH CAROLINA


Home > North America > United States > North Carolina
Elevation: 638 feet     Latitude: 36 02N     Longitude: 079 28W

WEATHER
 
SELECT A DAY
Number of Records: 176,530;   Date Range: 7/1/98 - 12/25/14
 
SHARE

PRINT THIS DATA

[ ← Previous Day ]
WEATHER ALMANAC - NOVEMBER 11, 2013
[ Next Day → ]
[ °C ]   °F
Weather ElementAverageHighLow
Temperature45.3 °F59 °F (2:54 pm)30.9 °F (6:54 am)
Dewpoint24.9 °F28.9 °F (6:54 pm)21.9 °F (10:54 am)
Humidity48.4 %76 % (6:54 am)24 % (2:54 pm)
Barometer30.25 in30.35 in (7:54 am)30.14 in (11:54 pm)
Wind Speed2.2 mph5.8 mph (2:54 am)
Weather ElementAverage
Visibility10 mi
Wind DirectionENE (83.9 °)

Weather ElementTotal
Precipitation---
Heating Degree Days20.1 (Base 65)
Averaged from 23 records on November 11, 2013
WEATHER CONDITIONS BREAKOUT
WIND DIRECTION BREAKOUT
WEATHER BY HOUR - NOVEMBER 11, 2013
[ °C ]   °F
Local TimeTemperatureDewpointHumidityBarometerVisibilityWind DirectionWind SpeedGust SpeedPrecipitationEventsConditions
1:54 AM42.1 °F24.1 °F49 %30.27 in10.0 miCalmClear
2:54 AM39.0 °F24.1 °F55 %30.27 in10.0 miNorth (350°)5.8 mphClear
3:54 AM39.0 °F24.1 °F55 %30.27 in10.0 miNorth (350°)3.5 mphClear
4:54 AM35.1 °F24.1 °F64 %30.30 in10.0 miCalmClear
5:54 AM32.0 °F24.1 °F73 %30.31 in10.0 miCalmClear
6:54 AM30.9 °F24.1 °F76 %30.33 in10.0 miCalmClear
7:54 AM35.1 °F27.0 °F72 %30.35 in10.0 miCalmClear
8:54 AM45.0 °F27.0 °F49 %30.35 in10.0 miCalmClear
9:54 AM50.0 °F24.1 °F36 %30.35 in10.0 miSE (130°)5.8 mphClear
10:54 AM52.0 °F21.9 °F31 %30.34 in10.0 miCalmClear
11:54 AM55.0 °F21.9 °F28 %30.31 in10.0 miSSE (160°)4.6 mphClear
12:54 PM55.9 °F21.9 °F27 %30.27 in10.0 miCalmClear
1:54 PM57.9 °F21.9 °F25 %30.24 in10.0 miSW (230°)5.8 mphClear
2:54 PM59.0 °F21.9 °F24 %30.20 in10.0 miVariable5.8 mphClear
3:54 PM59.0 °F21.9 °F24 %30.20 in10.0 miSSE (150°)5.8 mphClear
4:54 PM55.9 °F24.1 °F29 %30.19 in10.0 miSouth (170°)3.5 mphClear
5:54 PM51.1 °F26.1 °F38 %30.20 in10.0 miCalmClear
6:54 PM44.1 °F28.9 °F55 %30.20 in10.0 miCalmClear
7:54 PM41.0 °F28.9 °F62 %30.19 in10.0 miCalmClear
8:54 PM42.1 °F27.0 °F55 %30.18 in10.0 miSouth (190°)3.5 mphClear
9:54 PM42.1 °F28.9 °F60 %30.17 in10.0 miCalmClear
10:54 PM43.0 °F27.0 °F53 %30.15 in10.0 miSSW (200°)5.8 mphClear
11:54 PM36.0 °F28.0 °F73 %30.14 in10.0 miCalmClear
Hourly data recorded from KBUY, located miles away from Burlington, North Carolina







STORIES FROM OUR PARTNERS